Flag for U.S.A. Weather past 2 weeks in Alexandria, Virginia, U.S.A.

Now
80 °F

Partly sunny.


Feels Like: 80 °F
Forecast: 60 / 83 °F
Wind: No wind

Location: Reagan National Airport

Current Time: Aug 28, 2015 at 1:50:32 PM

Latest Report: Aug 28, 2015 at 12:52 PM


Visibility: 10 mi

Pressure: 30.20 "Hg

Humidity: 44%

Dew point: 56 °F

Location of AlexandriaLocation

Historic Weather in Alexandria — Graph

°F

Alexandria temperature yesterday

Maximum temperature yesterday: 82 °F (at 3:52 PM)
Minimum temperature yesterday: 63 °F (at 5:52 AM)
Average temperature yesterday: 73 °F

Past Weeks' High & Low Weather Summary

 TemperatureHumidityPressure
High95 °F (Aug 17, 1:52 PM)94% (Aug 20, 4:52 AM)30.22 "Hg (Aug 20, 4:52 AM)
Low63 °F (Aug 27, 5:52 AM)26% (Aug 13, 3:52 PM)29.81 "Hg (Aug 24, 5:52 PM)
Average78 °F62%30.04 "Hg
* Reported Aug 13 12:52 PM — Aug 28 12:52 PM, Alexandria, Weather by CustomWeather, © 2015

Note: Actual official high and low records may vary slightly from our data, if they occured in-between our weather recording intervals... More about our weather records

Advertising

Alexandria weather history for previous 24 hours

 ConditionsComfort  
Time TempWeatherWind HumidityBarometerVisibility
12:52 PM
Fri, Aug 28
80 °FPartly sunny.No wind44%30.20 "Hg10 mi
11:52 AM78 °FScattered clouds.3 mph48%30.21 "Hg10 mi
10:52 AM77 °FPassing clouds.3 mph48%30.22 "Hg10 mi
9:52 AM75 °FPassing clouds.No wind55%30.22 "Hg10 mi
8:52 AM70 °FPassing clouds.No wind68%30.21 "Hg10 mi
7:52 AM69 °FScattered clouds.No wind73%30.19 "Hg10 mi
6:52 AM66 °FPassing clouds.5 mph81%30.17 "Hg10 mi
5:52 AM66 °FPassing clouds.No wind78%30.16 "Hg10 mi
4:52 AM65 °FPassing clouds.6 mph81%30.15 "Hg10 mi
3:52 AM68 °FPassing clouds.3 mph78%30.15 "Hg10 mi
2:52 AM68 °FPassing clouds.3 mph76%30.16 "Hg10 mi
1:52 AM68 °FPassing clouds.3 mph76%30.16 "Hg10 mi
12:52 AM71 °FPassing clouds.No wind66%30.17 "Hg10 mi
11:52 PM
Thu, Aug 27
72 °FPassing clouds.No wind61%30.16 "Hg10 mi
10:52 PM75 °FPassing clouds.3 mph54%30.16 "Hg10 mi
9:52 PM73 °FClear.6 mph59%30.14 "Hg10 mi
8:52 PM75 °FPassing clouds.7 mph52%30.12 "Hg10 mi
7:52 PM76 °FScattered clouds.8 mph48%30.10 "Hg10 mi
6:52 PM78 °FScattered clouds.7 mph43%30.09 "Hg10 mi
5:52 PM80 °FPartly sunny.7 mph42%30.09 "Hg10 mi
4:52 PM81 °FBroken clouds.12 mph41%30.08 "Hg10 mi
3:52 PM82 °FPartly sunny.6 mph38%30.08 "Hg10 mi
2:52 PM79 °FPartly sunny.5 mph42%30.09 "Hg10 mi
1:52 PM80 °FPartly sunny.7 mph41%30.11 "Hg10 mi
Weather by CustomWeather, © 2015

See weather overviewHow to use our weather pages